Location: Sigmaringen
(48.0900°N, 9.2120°E)
Time: 00:11:29
(UTC+01:00)

ISS - Pass Details

Date: 05 January 2018
Orbit: 401 x 406 km, 51.6° (Epoch: 17 January)

Event Time Altitude Azimuth Distance (km) Brightness Sun altitude
Exits shadow 06:05:54 43° 19° (NNE) 582 -3.1 -20.3°
Drops below altitude 10° 06:08:39 10° 67° (ENE) 1,469 -0.2 -19.8°
Sets 06:10:47 0° 73° (ENE) 2,331 1.1 -19.5°
